LiveATC.Net - Listen to live air traffic control over the Internet!


ICAO: KEAU  IATA: EAU   Airport: Chippewa Valley Regional Airport
City: Eau Claire   State/Province: Wisconsin
Country: United States   Continent: North America
KEAU METAR Weather: KEAU 191056Z 00000KT 10SM FEW034 BKN050 16/14 A2993 RMK AO2 SLPNO T01560144
KEAU Flight Activity (FlightAware)
KEAU Airport Info   (AirNav) (iFlightPlanner)
KEAU VFR Sectional Chart   (iFlightPlanner) 
KEAU IFR Low Chart   (iFlightPlanner) 

KEAU Tower
Feed Status: DOWN
Last heard on: 2018-07-14 22:13:02 (4 days 13 hours 0 minutes ago)
KEAU Tower Audio Archives
FacilityFrequency
Eau Claire Tower118.575

NOTICE

Unauthorized use prohibited. See LiveATC.net Terms of Service


Find LiveATC Audio Streams


Airport/ARTCC Code

Frequency Search
(e.g., 124.400, 128.75)
Site-wide search
 


Browse LiveATC Feeds
Top 50 LiveATC Feeds
Bad Weather Areas

LiveATC FAQ
Offer a LiveATC Feed
Contact LiveATC.net
Press Inquiries

LiveATC on iPhone
LiveATC on Android

Windows Phone
Windows 8/10

LiveATC Mobile
(Mobile browser)

ATC Audio Archives
Interesting Recordings

LiveATC Forums


Home Page
About LiveATC.net
Make a Donation
Terms of Use
Privacy Policy

Canadian Air Freqs

AIRMETs/SIGMETs

FAA Airport Status
Nat'l Airspace Status
Arrival Demand Charts


Server Software By:
Icecast.org
Liquidsoap